sat.trackr.live / text

‹ back to catalog

STARLINK-34661

NORAD 64927 · 2025-157Z

PAYLOAD ACTIVE UNKNOWN

§ Identity

Operator
Country
US
Launch date
2025-07-26
Launch site
AFETR
Launch vehicle
Mass (kg)
RCS (m²)

Purposes: comms

External: N2YO · Heavens-Above · Gunter

§ Orbital elements

Epoch: 2026-05-24T23:41:24.144000Z

Period
94.10 min
Inclination
53.1588°
Eccentricity
0.0001120
Mean motion
15.30213779 rev/d
Perigee alt
474.4 km
Apogee alt
475.9 km
Semi-major
6,853.3 km
B*
5.6105e-4
RAAN
351.3772°
Arg perigee
79.8981°
Mean anomaly
280.2146°
Rev number
4,752

§ Raw data

STARLINK-346611 64927U 25157Z   26144.98708500  .00016301  00000+0  56105-3 0  99922 64927  53.1588 351.3772 0001120  79.8981 280.2146 15.30213779 47523

JSON: /api/v1/satellites/64927 · /tle

For live sub-satellite position, see the globe view (requires WebGL).

§ Visibility from observer

Set your observer location to see the next 7 days of passes ≥ 10°. The values pass through the URL so the page stays shareable.

No JS? Fill the form by hand. The geolocation button needs JavaScript.